Temp
15 16 16 17 13 10 12 15 17 20 20 20 21 19 19 19 20 18 18 19 18 18 17 17 17 17 16 16 15 16 16 15 15 15 15 15 15 15 15 14 15 15 15 15 14 15 15 15 14
14 15 15 15 11 11 12 13 17 18 20 20 21 19 19 18 17 17 17 18 18 18 17 17 17 16 16 16 16 15 15 15 15 15 15 15 15 15 15 15 15 14 14 14 14 14 14 14 14
13 14 15 10 8 12 13 15 15 18 20 21 21 18 17 15 15 18 18 18 17 17 17 17 16 16 16 16 16 15 15 15 15 15 15 15 15 15 15 15 15 15 14 14 14 14 14 14 14
13 13 13 9 9 10 13 16 15 16 20 20 19 18 16 15 15 17 17 17 16 17 16 16 16 16 16 16 15 15 15 15 15 15 15 15 15 15 15 15 15 15 15 15 14 14 14 14 14
12 12 9 8 9 11 12 15 15 14 17 18 18 17 15 14 15 16 16 16 16 16 16 15 15 15 16 16 15 15 15 15 15 15 16 16 16 16 15 15 15 15 15 15 14 14 14 14 14
11 10 7 7 9 11 11 16 15 16 17 18 18 14 14 14 15 15 16 15 16 16 15 15 15 16 16 15 15 15 15 15 16 16 16 16 16 15 15 15 15 15 14 14 14 14 14 14 14
9 7 7 8 8 11 13 16 15 15 15 17 17 13 13 14 15 15 15 16 16 16 15 15 15 15 15 15 15 15 15 16 16 16 16 16 15 15 15 15 14 14 14 14 14 14 13 13 13
10 7 8 7 8 9 13 15 15 15 15 16 16 13 13 14 14 15 15 15 15 15 14 15 15 15 15 15 15 15 16 16 16 16 16 15 15 15 15 15 14 14 13 13 13 13 13 12 13
9 9 6 8 8 10 13 12 13 13 14 14 16 15 15 14 14 15 15 15 15 15 14 14 14 14 14 15 15 16 16 16 15 15 15 15 14 14 14 14 14 14 13 13 13 13 12 12 12
8 6 7 8 9 10 10 10 11 12 12 14 14 15 15 14 14 15 15 15 14 15 14 14 14 14 14 15 15 16 15 15 15 15 15 14 14 13 13 13 13 13 12 12 12 12 12 12 11
8 7 8 10 10 10 10 10 11 11 10 13 13 13 13 13 13 14 15 15 15 15 14 14 14 14 14 15 15 15 15 15 15 14 14 14 13 13 12 12 12 12 12 12 12 12 12 12 11
6 8 8 9 10 10 9 10 9 10 10 12 13 13 14 13 13 13 15 15 15 15 14 14 13 14 14 15 15 15 14 14 14 14 14 14 13 13 12 12 12 12 12 12 12 12 12 12 12
6 7 8 8 8 9 9 9 9 9 10 11 13 14 14 14 13 12 13 14 14 14 13 13 13 14 14 15 15 15 14 14 14 14 13 13 13 12 12 12 12 12 12 12 12 12 12 12 11
7 7 7 8 8 8 8 9 9 10 11 12 13 14 14 13 13 12 12 14 14 13 13 13 13 13 14 14 14 14 14 13 13 13 13 13 12 12 12 12 12 12 12 12 12 11 11 11 11
6 6 6 7 7 7 9 8 8 10 10 11 13 14 14 12 12 12 12 13 14 13 13 13 13 13 14 14 14 13 13 13 13 13 12 13 12 12 12 12 11 12 12 11 12 11 11 11 11
6 5 6 7 7 8 8 7 9 10 11 11 12 13 13 12 12 11 12 13 13 12 12 13 12 13 13 13 13 13 13 13 12 12 12 12 12 12 11 11 11 11 11 11 11 11 11 11 11
5 5 5 5 7 8 7 7 9 10 11 11 12 12 12 11 11 11 12 12 13 12 12 12 12 13 13 12 12 12 12 12 12 12 12 12 11 12 11 11 10 11 11 11 11 11 11 11 11
5 5 4 4 7 7 7 7 9 10 10 10 11 12 11 11 11 11 11 12 12 12 11 12 13 12 12 12 12 12 12 12 12 11 12 11 11 11 11 11 11 11 11 11 11 11 11 11 11
6 4 5 5 6 6 6 7 8 9 9 9 11 11 12 10 11 11 11 12 12 12 11 12 12 12 12 12 12 12 12 12 12 11 11 11 11 11 11 10 11 11 11 11 11 10 10 10 10
5 4 5 6 6 6 5 6 7 7 8 9 10 10 11 11 11 11 11 11 11 12 11 11 12 12 12 12 12 12 12 11 11 11 11 11 11 11 10 10 10 10 11 10 10 10 9 9 9
4 4 5 5 6 6 5 5 7 8 9 9 10 10 11 11 10 10 11 11 11 11 12 11 12 12 12 11 11 11 11 11 11 11 11 10 11 10 10 10 10 10 10 9 9 9 9 9 9
5 6 6 6 5 5 6 6 7 7 8 8 9 10 10 13 11 11 11 11 11 11 11 12 11 11 11 11 11 11 12 11 11 10 11 10 10 10 9 9 9 9 9 8 8 9 8 8 8
5 6 5 5 5 5 5 6 7 7 8 7 9 9 10 14 12 10 11 12 11 11 11 11 11 11 11 11 11 11 11 11 10 10 10 10 10 10 9 9 9 9 8 8 8 8 7 7 7
7 6 6 5 5 5 7 6 8 8 9 9 9 10 10 13 11 11 11 11 11 11 11 11 11 11 11 11 10 11 11 11 10 10 10 10 10 9 9 8 8 8 8 8 8 7 7 7 6
6 6 5 5 5 6 6 6 8 9 8 9 9 9 11 13 10 10 10 11 11 11 11 11 10 10 11 10 10 10 10 10 10 10 10 9 9 9 8 8 8 8 8 8 7 7 6 6 6
6 5 6 8 7 6 7 7 9 10 10 11 10 10 10 11 10 11 11 12 12 11 11 10 11 10 10 10 10 10 10 10 9 9 9 9 9 8 8 8 8 8 7 7 7 6 6 6 6
8 6 7 7 6 6 6 7 9 9 9 8 9 9 9 9 10 10 11 12 12 11 11 10 11 10 10 10 9 9 10 9 9 9 9 9 8 8 8 8 8 7 7 7 7 7 6 6 6
8 8 7 5 7 8 7 7 6 8 8 9 8 8 9 8 8 9 11 12 12 11 11 11 10 11 10 9 9 9 9 9 9 8 8 8 8 7 7 7 7 7 7 7 7 7 7 7 7
8 7 7 6 6 7 8 8 9 9 9 8 8 9 9 9 9 10 11 11 11 11 10 10 10 10 9 9 9 9 9 8 8 8 8 7 7 7 7 7 7 7 7 7 7 7 7 7 6
9 8 7 7 6 7 7 8 8 6 6 7 9 9 8 9 9 10 11 11 11 11 10 10 10 10 9 9 8 8 8 8 8 7 7 7 7 7 7 6 7 7 7 7 7 6 6 6 6
Height
1524 1524 1525 1527 1537 1538 1537 1523 1510 1507 1506 1502 1501 1501 1499 1499 1503 1516 1502 1505 1509 1512 1516 1520 1524 1528 1531 1533 1535 1536 1537 1538 1539 1540 1541 1541 1542 1542 1542 1541 1541 1541 1540 1540 1540 1540 1540 1539 1539
1524 1524 1526 1526 1540 1544 1533 1516 1510 1505 1503 1503 1501 1501 1501 1500 1500 1499 1502 1505 1510 1513 1516 1519 1523 1527 1530 1533 1534 1535 1537 1538 1539 1540 1540 1541 1541 1541 1541 1540 1540 1540 1540 1540 1540 1539 1539 1539 1538
1524 1524 1526 1529 1539 1533 1529 1512 1509 1503 1503 1503 1502 1501 1501 1500 1499 1499 1501 1504 1510 1513 1517 1519 1522 1526 1529 1532 1533 1535 1536 1538 1538 1539 1539 1539 1539 1539 1539 1539 1539 1539 1539 1539 1539 1539 1538 1538 1538
1524 1526 1528 1532 1532 1525 1519 1511 1509 1506 1502 1502 1502 1501 1500 1499 1498 1500 1502 1505 1509 1513 1517 1520 1522 1525 1528 1530 1533 1534 1536 1537 1537 1538 1538 1538 1538 1538 1538 1538 1538 1538 1538 1537 1538 1537 1537 1537 1536
1526 1526 1532 1533 1529 1521 1514 1510 1509 1509 1508 1504 1504 1499 1499 1498 1499 1500 1503 1506 1509 1512 1516 1520 1522 1524 1527 1529 1532 1533 1535 1535 1536 1536 1536 1536 1537 1537 1537 1537 1537 1537 1536 1536 1536 1536 1535 1535 1534
1527 1528 1536 1536 1527 1519 1514 1509 1509 1507 1505 1504 1502 1501 1500 1499 1500 1500 1503 1506 1510 1512 1515 1519 1521 1524 1526 1529 1531 1532 1533 1534 1535 1535 1535 1536 1536 1536 1536 1536 1536 1536 1535 1535 1535 1534 1534 1534 1533
1527 1531 1533 1528 1527 1521 1514 1509 1507 1506 1506 1504 1504 1502 1501 1500 1500 1501 1503 1507 1510 1513 1515 1517 1520 1523 1526 1528 1530 1532 1532 1533 1533 1534 1534 1535 1535 1535 1535 1535 1535 1535 1534 1534 1534 1534 1534 1533 1532
1527 1528 1528 1526 1524 1522 1512 1508 1506 1506 1504 1505 1503 1503 1501 1500 1500 1501 1503 1507 1510 1512 1514 1516 1519 1522 1525 1527 1529 1531 1531 1532 1533 1533 1533 1534 1534 1534 1534 1534 1534 1533 1533 1533 1533 1533 1533 1533 1532
1527 1529 1528 1522 1523 1516 1511 1510 1506 1506 1505 1505 1502 1503 1502 1501 1500 1500 1502 1505 1508 1510 1513 1515 1518 1521 1524 1526 1528 1529 1530 1531 1532 1532 1532 1533 1533 1533 1533 1532 1532 1532 1532 1533 1532 1533 1533 1532 1532
1526 1528 1522 1518 1516 1514 1512 1510 1508 1506 1504 1502 1500 1500 1497 1497 1498 1497 1497 1500 1504 1507 1510 1514 1517 1520 1522 1525 1527 1528 1529 1530 1531 1531 1531 1532 1532 1532 1532 1532 1532 1532 1532 1532 1532 1533 1533 1533 1532
1522 1519 1518 1516 1515 1514 1512 1507 1508 1504 1501 1501 1500 1498 1499 1498 1495 1495 1496 1499 1502 1506 1509 1512 1516 1519 1522 1524 1526 1527 1529 1529 1530 1531 1531 1531 1531 1531 1532 1532 1532 1532 1532 1532 1532 1532 1532 1532 1532
1522 1514 1516 1514 1515 1514 1510 1507 1502 1502 1498 1499 1496 1496 1496 1497 1494 1493 1491 1495 1499 1504 1508 1511 1515 1518 1521 1523 1525 1527 1528 1529 1530 1530 1530 1530 1531 1531 1532 1531 1531 1531 1532 1532 1532 1532 1531 1531 1531
1518 1514 1514 1513 1513 1510 1509 1504 1502 1492 1495 1495 1493 1491 1490 1490 1491 1492 1494 1495 1499 1502 1506 1509 1513 1516 1520 1522 1524 1526 1528 1529 1529 1530 1530 1530 1530 1531 1531 1531 1532 1531 1531 1531 1531 1531 1531 1531 1530
1514 1513 1510 1508 1506 1506 1505 1498 1500 1485 1488 1488 1488 1486 1485 1485 1487 1489 1491 1494 1496 1500 1504 1508 1511 1515 1518 1521 1523 1525 1527 1528 1529 1529 1529 1529 1530 1531 1531 1531 1531 1531 1531 1531 1531 1530 1530 1530 1530
1515 1512 1508 1500 1501 1501 1500 1494 1487 1480 1486 1485 1484 1482 1481 1481 1483 1484 1490 1493 1495 1498 1502 1506 1509 1513 1517 1520 1522 1524 1526 1527 1528 1529 1529 1529 1530 1530 1531 1530 1531 1530 1530 1530 1530 1530 1530 1530 1529
1514 1512 1506 1496 1495 1495 1496 1488 1473 1480 1478 1478 1478 1477 1476 1477 1477 1481 1487 1490 1495 1499 1501 1504 1508 1512 1515 1518 1521 1523 1525 1526 1527 1528 1528 1529 1529 1529 1530 1530 1531 1530 1530 1530 1530 1530 1530 1529 1529
1511 1505 1504 1500 1492 1491 1492 1483 1463 1472 1472 1472 1473 1473 1472 1474 1475 1477 1483 1488 1493 1497 1501 1503 1506 1510 1514 1517 1520 1522 1524 1525 1526 1527 1528 1528 1529 1529 1530 1530 1531 1530 1530 1530 1530 1530 1529 1529 1529
1506 1503 1501 1500 1492 1488 1486 1474 1462 1470 1471 1469 1468 1469 1469 1470 1470 1474 1480 1485 1490 1494 1499 1503 1505 1509 1512 1515 1518 1520 1522 1524 1525 1526 1527 1527 1528 1528 1529 1530 1530 1530 1529 1529 1529 1529 1529 1529 1528
1502 1504 1499 1495 1491 1492 1483 1473 1458 1468 1467 1466 1463 1462 1465 1466 1468 1470 1477 1482 1487 1491 1495 1500 1502 1506 1510 1513 1516 1519 1521 1522 1524 1525 1526 1527 1527 1528 1528 1529 1530 1529 1529 1529 1529 1528 1528 1528 1527
1501 1498 1490 1486 1487 1488 1482 1465 1458 1466 1463 1460 1458 1457 1459 1463 1464 1467 1472 1477 1482 1487 1492 1497 1501 1505 1509 1513 1516 1519 1521 1522 1523 1525 1525 1526 1526 1528 1528 1529 1529 1529 1528 1528 1528 1527 1528 1527 1526
1496 1494 1488 1484 1481 1480 1478 1459 1455 1452 1453 1453 1452 1450 1453 1456 1461 1463 1467 1473 1479 1483 1489 1494 1499 1504 1508 1512 1514 1517 1519 1521 1522 1524 1525 1526 1526 1527 1528 1528 1528 1528 1527 1527 1527 1526 1527 1527 1525
1488 1484 1481 1476 1480 1474 1470 1452 1442 1439 1440 1440 1438 1442 1444 1443 1453 1458 1463 1468 1474 1479 1486 1492 1497 1503 1507 1510 1513 1517 1519 1520 1522 1524 1525 1525 1526 1526 1527 1527 1527 1526 1526 1526 1526 1526 1526 1526 1525
1481 1478 1476 1471 1469 1471 1464 1463 1433 1431 1431 1429 1426 1429 1435 1438 1446 1453 1459 1464 1472 1477 1483 1489 1495 1501 1505 1509 1513 1516 1517 1519 1521 1523 1524 1524 1525 1525 1526 1526 1526 1525 1525 1526 1525 1525 1525 1525 1525
1477 1473 1466 1466 1468 1461 1448 1456 1415 1424 1415 1415 1419 1419 1427 1433 1441 1449 1456 1461 1469 1474 1481 1488 1494 1499 1503 1508 1511 1514 1517 1519 1521 1522 1522 1524 1524 1524 1525 1525 1525 1525 1525 1525 1524 1524 1524 1524 1523
1476 1472 1469 1468 1465 1456 1442 1445 1418 1408 1408 1405 1407 1414 1417 1427 1435 1443 1449 1457 1465 1471 1478 1485 1491 1497 1502 1507 1510 1513 1515 1517 1520 1521 1522 1523 1523 1523 1524 1524 1525 1525 1524 1524 1524 1523 1523 1522 1521
1473 1475 1470 1453 1452 1450 1439 1435 1411 1396 1395 1395 1399 1405 1416 1420 1427 1435 1443 1452 1461 1468 1475 1482 1489 1495 1500 1505 1509 1512 1514 1516 1518 1520 1521 1521 1522 1523 1523 1524 1524 1524 1523 1523 1523 1522 1521 1521 1520
1465 1473 1461 1460 1454 1447 1436 1421 1405 1397 1393 1394 1398 1403 1413 1420 1424 1433 1442 1451 1458 1465 1472 1479 1489 1493 1499 1504 1507 1510 1513 1515 1517 1519 1519 1520 1521 1522 1522 1523 1523 1522 1522 1522 1522 1521 1520 1520 1519
1465 1461 1463 1465 1448 1434 1428 1422 1424 1406 1402 1398 1401 1403 1411 1420 1427 1433 1440 1448 1456 1464 1472 1481 1487 1492 1498 1502 1506 1509 1511 1513 1515 1517 1518 1519 1521 1521 1521 1521 1522 1521 1521 1521 1520 1520 1519 1518 1517
1465 1464 1461 1462 1456 1442 1430 1420 1409 1403 1402 1404 1400 1400 1407 1415 1422 1428 1436 1446 1456 1464 1471 1479 1485 1491 1496 1501 1505 1507 1509 1512 1513 1515 1517 1518 1519 1520 1520 1520 1521 1520 1520 1520 1519 1518 1517 1516 1514
1460 1459 1460 1459 1457 1449 1440 1427 1410 1405 1404 1403 1402 1407 1411 1416 1421 1428 1437 1446 1454 1462 1470 1478 1484 1489 1495 1499 1503 1505 1508 1510 1512 1514 1516 1518 1518 1518 1519 1520 1520 1519 1519 1518 1518 1516 1515 1513 1511
Wind_Speed
4 4 3 3 2 4 4 7 2 3 3 4 4 3 8 4 6 4 14 23 28 27 26 24 20 17 15 14 12 11 11 10 9 7 5 3 2 3 2 2 3 3 2 2 2 2 2 2 2
3 3 4 1 4 3 6 4 5 8 3 6 5 3 1 3 4 8 24 20 29 25 26 24 21 19 18 17 14 12 11 9 7 7 6 5 5 6 6 6 5 5 4 3 3 3 4 4 4
2 2 3 3 4 7 5 4 7 13 16 17 3 1 2 3 7 21 22 26 28 25 24 23 22 20 19 17 14 13 10 9 8 7 7 7 7 7 7 7 7 8 8 8 9 8 8 8 7
2 1 1 2 7 5 4 4 8 8 6 8 5 2 3 6 13 21 26 28 28 25 24 24 23 21 19 15 14 12 10 9 8 8 7 7 7 7 7 7 7 7 8 8 8 9 9 8 7
2 1 1 3 4 5 5 9 6 6 10 12 7 4 2 5 18 19 27 30 28 26 26 24 23 21 18 16 14 12 10 9 8 8 7 6 6 5 5 5 5 5 5 5 5 6 5 5 5
0 2 0 4 5 4 6 16 7 5 11 17 5 3 4 9 17 24 29 29 26 26 28 26 24 20 19 16 13 11 9 9 8 7 6 5 4 4 4 4 4 4 4 4 4 4 4 3 4
3 3 4 3 3 3 4 14 4 3 7 6 11 5 3 16 19 28 28 27 25 21 28 28 24 21 18 15 12 11 10 9 8 7 6 4 4 4 4 4 4 4 4 4 3 3 2 2 3
1 3 3 5 4 5 6 11 5 6 4 10 6 2 4 21 24 28 27 28 25 24 27 26 23 21 18 15 13 11 10 9 8 6 5 4 4 4 4 4 4 3 3 3 2 2 2 3 3
1 3 4 4 5 4 6 4 4 11 11 13 5 12 13 20 30 30 31 30 28 27 26 26 23 21 18 15 13 12 10 9 7 6 5 4 3 3 2 2 1 1 1 1 1 1 2 2 2
4 3 5 5 3 3 13 9 17 7 13 8 5 18 22 20 37 36 37 36 34 32 28 27 24 21 18 16 14 12 10 9 7 5 4 3 3 2 1 1 2 1 1 1 1 0 1 2 3
5 6 2 4 12 15 10 21 12 7 5 9 23 23 20 26 39 40 39 37 36 32 30 28 25 21 18 16 14 12 10 8 6 5 4 3 2 2 2 1 1 2 2 1 1 1 2 2 3
7 14 8 9 11 16 6 19 11 17 21 21 24 28 21 22 38 43 44 40 37 34 31 29 25 21 19 16 14 12 10 8 6 4 4 3 2 2 2 2 2 2 2 2 2 2 3 3 3
9 12 18 24 23 22 23 23 20 27 27 30 27 23 23 23 38 35 41 39 35 34 32 30 26 22 19 17 15 12 10 7 5 4 4 3 3 3 2 2 2 2 1 1 2 2 2 3 3
8 15 19 24 23 20 18 24 17 35 7 18 25 27 24 23 39 35 38 40 36 34 31 30 27 23 20 18 14 12 9 7 5 5 4 3 3 3 3 2 2 2 2 2 2 2 2 3 4
11 13 15 21 19 8 13 14 16 38 25 24 24 26 23 20 36 42 39 40 37 35 32 30 27 23 20 17 14 11 9 7 6 5 4 4 4 3 3 3 3 2 2 2 2 2 2 4 5
6 4 8 1 2 9 10 21 24 8 16 17 21 26 20 25 36 40 40 40 36 32 31 29 26 24 21 18 15 12 10 8 6 5 4 4 4 4 4 3 3 2 1 2 2 2 3 3 4
6 11 11 8 8 7 10 13 20 16 25 24 30 20 18 23 31 35 39 40 36 34 32 30 27 24 21 19 16 13 11 9 7 6 5 4 4 4 3 3 3 2 1 1 2 3 3 3 4
4 6 5 7 4 4 9 20 20 12 9 16 20 19 17 22 30 35 36 38 36 34 31 29 27 25 22 20 18 15 12 10 8 6 5 5 4 4 3 2 2 1 1 1 2 2 3 4 4
13 13 16 6 6 6 9 17 24 12 16 20 29 31 23 23 26 34 34 36 36 34 32 29 28 27 24 22 19 16 13 10 9 7 6 5 4 3 3 2 1 1 1 1 2 2 3 4 5
16 19 19 19 14 11 12 24 22 10 11 21 26 24 24 21 27 32 35 37 37 35 32 30 28 26 24 20 16 14 12 11 9 8 7 6 4 4 3 2 2 2 1 2 2 3 4 4 5
17 19 15 16 6 12 11 23 19 18 23 30 34 34 24 23 31 35 37 38 39 36 34 31 28 25 22 20 17 15 14 12 10 8 7 6 5 3 3 3 3 3 2 3 3 3 4 5 6
17 12 19 20 11 8 10 10 11 6 14 18 31 28 27 26 28 38 40 41 41 36 34 31 26 25 22 20 17 14 10 9 9 8 8 6 4 3 4 4 4 4 4 4 5 5 5 6 6
9 10 15 19 15 12 13 6 2 7 12 16 21 30 31 34 33 39 42 41 39 35 34 31 27 26 23 20 17 14 12 10 9 8 8 5 4 4 4 5 5 5 5 5 6 6 7 7 8
13 13 16 11 6 8 14 13 17 8 14 14 16 29 32 32 35 39 41 42 39 34 32 31 30 28 23 21 18 14 12 9 9 8 7 6 4 5 5 4 4 4 4 5 6 7 7 8 8
7 6 4 2 2 5 7 10 17 8 9 9 17 23 37 35 38 41 43 42 39 33 33 31 30 27 24 21 18 14 12 9 8 7 6 5 5 5 5 4 4 4 4 5 5 6 7 8 9
5 4 3 5 3 4 1 8 6 11 20 25 26 32 30 35 38 42 44 44 38 34 33 31 30 28 24 21 18 15 12 9 8 8 6 6 5 5 5 4 4 4 5 6 6 6 7 8 9
1 3 3 4 4 3 3 6 9 5 2 7 16 27 31 34 40 43 45 43 36 33 33 31 30 26 23 21 18 15 12 9 8 9 7 7 6 5 4 3 4 5 5 5 5 6 8 9 10
5 2 3 2 5 4 4 5 4 8 7 3 9 16 25 29 35 40 42 41 35 32 32 32 27 24 22 20 18 14 11 10 10 9 8 7 5 4 4 4 4 3 3 5 6 7 9 11 13
2 4 2 2 3 3 4 4 3 10 3 7 8 23 32 34 37 39 39 38 32 31 31 28 25 23 21 19 17 15 12 11 10 9 7 6 5 4 4 3 2 2 3 5 7 10 12 14 17
4 1 3 2 5 3 3 5 4 7 6 5 8 14 22 30 34 35 35 34 32 30 28 27 24 22 20 18 17 15 13 12 10 8 6 6 5 4 3 2 2 2 5 8 10 12 14 17 20
Wind_Direction
319 264 224 204 49 63 236 243 256 247 236 317 253 206 181 137 167 205 156 167 172 167 170 173 175 172 167 166 167 166 165 163 166 167 173 200 224 211 219 221 248 259 264 266 276 301 302 304 313
296 230 204 174 125 182 248 241 223 232 121 344 351 351 13 188 179 159 154 160 172 169 170 172 172 172 174 182 182 178 179 184 197 209 223 237 237 244 251 250 238 229 229 242 251 259 267 282 286
285 231 177 145 177 216 232 235 248 275 285 305 271 323 230 193 193 166 160 159 170 173 173 173 171 177 183 187 185 182 187 201 214 227 237 242 247 252 254 254 251 250 252 251 253 259 265 272 273
292 215 117 150 225 255 244 336 352 350 334 26 303 232 217 197 177 171 165 164 170 176 176 172 174 181 188 181 183 188 198 210 225 235 242 245 249 251 256 258 257 253 253 258 261 262 267 270 269
309 34 320 255 257 265 255 269 319 313 301 303 309 243 215 199 183 176 169 169 174 175 172 174 180 185 192 185 189 194 204 220 234 242 248 248 250 251 253 255 258 262 265 268 271 272 271 271 266
24 73 46 249 232 262 292 281 294 280 296 312 271 196 220 196 185 172 172 172 174 176 172 176 181 184 188 188 193 202 213 226 234 237 241 244 250 252 252 254 260 264 268 269 266 263 260 254 246
127 103 231 239 236 293 247 259 259 291 325 337 313 165 254 182 187 175 172 174 175 190 185 181 186 189 189 190 198 209 219 226 228 230 234 240 243 252 257 259 258 256 253 248 246 243 229 217 233
163 117 258 234 189 255 251 276 268 355 308 342 358 252 215 199 186 180 181 183 185 189 193 190 190 191 189 195 204 213 220 222 225 226 228 232 251 262 261 254 241 233 231 232 230 218 203 199 242
178 257 239 253 156 242 279 326 320 325 305 319 298 312 276 208 193 188 185 188 187 193 200 199 192 190 193 201 209 214 217 218 219 221 232 248 257 255 259 240 224 217 224 230 199 185 202 210 242
186 221 241 215 215 309 310 309 315 319 333 311 318 334 340 219 198 194 192 191 191 195 194 199 194 194 197 203 209 210 211 212 214 216 233 242 243 238 214 203 187 180 189 188 218 225 272 278 276
211 238 177 263 296 307 302 302 294 295 256 266 304 311 327 210 203 200 198 198 197 196 197 195 195 197 201 204 206 206 204 207 213 217 237 245 235 200 179 178 168 172 175 209 236 288 317 317 304
270 252 253 281 287 291 277 291 282 263 266 278 285 296 298 237 209 206 199 199 199 199 199 196 194 196 198 201 203 203 201 206 211 213 225 237 230 193 191 189 184 175 197 227 268 291 297 303 299
250 280 276 280 283 272 273 271 270 274 276 278 281 282 296 239 220 212 207 198 199 198 199 197 195 195 199 201 201 199 196 204 205 210 215 209 205 193 195 194 184 185 219 247 283 293 293 296 292
258 283 282 287 274 277 261 267 262 266 254 283 283 285 286 241 219 217 208 199 201 199 202 197 194 197 199 201 200 196 193 200 206 203 199 194 193 195 204 202 211 215 231 251 276 290 298 300 304
290 287 285 270 259 239 256 265 244 259 265 268 270 271 273 237 220 218 212 202 203 201 198 196 195 196 198 200 198 195 197 201 203 200 194 187 188 190 202 213 222 224 249 255 280 289 299 309 312
281 261 284 355 283 242 185 268 263 271 250 250 257 262 270 233 219 220 214 206 203 203 199 197 197 197 198 198 199 198 200 201 198 195 199 189 192 200 208 205 218 205 246 285 298 297 300 313 322
222 273 255 288 229 241 196 256 269 246 242 248 263 271 255 234 225 220 216 211 206 207 203 199 197 198 197 198 201 202 200 200 200 201 199 197 195 204 205 203 205 193 236 273 291 305 305 306 309
248 246 234 247 299 254 240 252 265 256 244 259 261 263 256 230 227 225 217 212 209 208 203 201 198 198 197 199 201 202 201 200 199 200 203 196 194 195 192 194 204 194 213 278 306 307 308 310 314
273 266 266 256 262 320 266 267 269 275 241 240 256 259 257 227 227 224 216 213 204 203 200 201 198 196 198 198 200 202 204 201 199 200 202 197 189 190 190 202 208 218 248 286 301 309 313 312 321
250 258 266 274 261 254 267 270 276 262 241 235 249 255 245 229 218 214 211 211 203 204 200 200 200 200 199 200 202 207 205 198 198 200 200 193 182 192 196 213 238 254 264 277 286 310 315 315 322
238 243 258 254 267 258 273 277 280 260 248 237 248 252 246 211 219 213 207 208 204 202 201 200 200 201 199 196 199 201 201 201 202 203 198 191 190 194 223 247 256 266 270 275 291 303 306 315 323
265 243 254 259 260 262 172 282 251 258 236 215 225 229 224 220 226 216 206 205 202 202 202 199 199 202 199 200 201 205 207 206 201 199 194 189 193 211 236 246 251 260 268 283 293 298 304 310 316
255 276 256 251 246 253 226 267 268 219 240 219 215 213 213 207 222 211 206 203 202 200 200 197 195 203 202 202 200 199 198 200 202 198 193 194 208 228 238 244 254 261 274 287 295 298 305 308 312
269 279 261 256 235 250 253 213 272 223 232 204 222 201 198 202 213 214 208 200 199 199 198 196 197 199 201 200 198 197 200 202 204 201 193 205 218 223 235 249 265 282 295 296 297 302 306 307 310
247 287 307 328 178 235 328 194 250 265 243 198 201 197 188 196 196 200 200 198 199 195 196 195 198 198 199 199 198 197 198 200 201 203 206 218 224 230 243 256 275 291 302 311 307 302 303 305 310
228 191 291 299 303 271 248 218 252 247 246 257 188 173 182 191 198 203 201 199 196 196 195 195 198 199 198 199 198 197 199 201 205 211 218 226 228 232 243 264 275 291 299 297 299 306 307 308 312
232 233 219 274 241 266 232 278 295 313 279 138 151 157 175 189 194 200 198 198 196 199 195 195 201 197 199 200 200 201 202 206 211 216 224 229 235 244 259 271 286 289 289 303 314 311 311 319 316
233 292 309 277 302 289 295 277 263 336 349 129 146 163 177 181 183 193 196 198 200 199 197 200 200 200 200 202 204 205 207 213 214 221 222 228 241 255 260 271 272 275 303 312 317 323 321 319 317
309 286 238 257 248 307 310 308 207 301 263 246 195 179 180 189 191 193 196 198 199 200 200 200 199 199 201 203 205 207 210 214 213 216 220 231 238 245 260 253 260 286 314 322 321 321 320 318 316
221 274 286 280 311 259 273 278 17 311 293 239 191 158 178 186 192 193 195 195 196 198 200 200 198 199 201 203 204 205 208 209 210 213 222 223 229 238 217 237 268 324 323 320 318 316 315 315 313